Location: ??????
(41.3794°N, 22.5014°E)
Time: 07:07:02
(UTC+00:00)

ISS - Pass Details

Date: 30 November 2020
Orbit: 418 x 419 km, 51.6° (Epoch: 18 January)

Event Time Altitude Azimuth Distance (km) Brightness Sun altitude
Rises 17:07:13 0° 308° (NW) 2,368 0.7 -23.0°
Reaches altitude 10° 17:09:49 10° 329° (NNW) 1,502 -0.7 -23.5°
Enters shadow 17:10:19 12° 335° (NNW) 1,375 -1.0 -23.6°
